Time,TemperatureF,DewpointF,PressureIn,WindDirection,WindDirectionDegrees,WindSpeedMPH,WindSpeedGustMPH,Humidity,HourlyPrecipIn,Conditions,Clouds,dailyrainin,SoftwareType,DateUTC
2013-10-16 00:00:00,44.0,41.0,29.86,NNE,22,8.0,14.0,89,0.00,,,-99.99,Weather View 32 v60,2013-10-16 05:00:00,
2013-10-16 00:05:00,44.0,41.0,29.86,NNE,22,4.0,14.0,89,0.00,,,-99.99,Weather View 32 v60,2013-10-16 05:05:00,
2013-10-16 00:10:00,44.0,41.0,29.86,SSE,158,1.0,14.0,89,0.00,,,-99.99,Weather View 32 v60,2013-10-16 05:10:00,
2013-10-16 00:15:00,44.0,41.0,29.86,NNE,22,4.0,14.0,89,0.00,,,-99.99,Weather View 32 v60,2013-10-16 05:15:00,
2013-10-16 00:20:00,44.0,41.0,29.86,NNE,22,3.0,14.0,89,0.00,,,-99.99,Weather View 32 v60,2013-10-16 05:20:00,
2013-10-16 00:25:00,44.0,41.0,29.86,East,90,2.0,14.0,89,0.00,,,-99.99,Weather View 32 v60,2013-10-16 05:25:00,
2013-10-16 00:30:00,44.0,41.0,29.86,NNE,22,4.0,14.0,89,0.00,,,-99.99,Weather View 32 v60,2013-10-16 05:30:00,
2013-10-16 00:35:00,44.0,41.0,29.86,NE,45,5.0,14.0,89,0.00,,,-99.99,Weather View 32 v60,2013-10-16 05:35:00,
2013-10-16 00:40:00,44.0,41.0,29.87,East,90,3.0,14.0,89,0.00,,,-99.99,Weather View 32 v60,2013-10-16 05:40:00,
2013-10-16 00:45:00,44.0,41.0,29.87,NE,45,5.0,14.0,89,0.00,,,-99.99,Weather View 32 v60,2013-10-16 05:45:00,
2013-10-16 00:50:00,44.0,41.0,29.87,NNE,22,5.0,11.0,89,0.00,,,-99.99,Weather View 32 v60,2013-10-16 05:50:00,
2013-10-16 00:55:00,44.0,41.0,29.87,North,0,5.0,10.0,89,0.00,,,-99.99,Weather View 32 v60,2013-10-16 05:55:00,
2013-10-16 01:00:00,44.0,41.0,29.87,NE,45,6.0,10.0,89,0.00,,,-99.99,Weather View 32 v60,2013-10-16 06:00:00,
2013-10-16 01:05:00,44.0,41.0,29.88,North,0,8.0,11.0,89,0.00,,,-99.99,Weather View 32 v60,2013-10-16 06:05:00,
2013-10-16 01:10:00,44.0,41.0,29.88,North,0,5.0,11.0,89,0.00,,,-99.99,Weather View 32 v60,2013-10-16 06:10:00,
2013-10-16 01:15:00,44.0,41.0,29.88,NNE,22,4.0,14.0,89,0.00,,,-99.99,Weather View 32 v60,2013-10-16 06:15:00,
2013-10-16 01:20:00,44.0,41.0,29.88,NNW,338,5.0,14.0,89,0.00,,,-99.99,Weather View 32 v60,2013-10-16 06:20:00,
2013-10-16 01:25:00,44.0,41.0,29.88,NNE,22,4.0,14.0,89,0.00,,,-99.99,Weather View 32 v60,2013-10-16 06:25:00,
2013-10-16 01:35:00,44.0,41.0,29.89,NNE,22,3.0,14.0,89,0.00,,,-99.99,Weather View 32 v60,2013-10-16 06:35:00,
2013-10-16 01:40:00,43.0,40.0,29.89,East,90,5.0,14.0,89,0.00,,,-99.99,Weather View 32 v60,2013-10-16 06:40:00,
2013-10-16 01:45:00,43.0,40.0,29.89,ENE,68,3.0,14.0,89,0.00,,,-99.99,Weather View 32 v60,2013-10-16 06:45:00,
2013-10-16 01:50:00,43.0,40.0,29.89,NE,45,9.0,14.0,89,0.00,,,-99.99,Weather View 32 v60,2013-10-16 06:50:00,
2013-10-16 02:00:00,43.0,40.0,29.89,ENE,68,5.0,14.0,89,0.00,,,-99.99,Weather View 32 v60,2013-10-16 07:00:00,
2013-10-16 02:05:00,43.0,40.0,29.89,North,0,5.0,14.0,89,0.00,,,-99.99,Weather View 32 v60,2013-10-16 07:05:00,
2013-10-16 02:10:00,43.0,40.0,29.89,NNE,22,6.0,14.0,89,0.00,,,-99.99,Weather View 32 v60,2013-10-16 07:10:00,
2013-10-16 02:15:00,43.0,40.0,29.90,NNE,22,5.0,14.0,89,0.00,,,-99.99,Weather View 32 v60,2013-10-16 07:15:00,
2013-10-16 02:20:00,43.0,40.0,29.90,ENE,68,3.0,14.0,89,0.00,,,-99.99,Weather View 32 v60,2013-10-16 07:20:00,
2013-10-16 02:25:00,43.0,40.0,29.90,NE,45,5.0,14.0,89,0.00,,,-99.99,Weather View 32 v60,2013-10-16 07:25:00,
2013-10-16 02:30:00,43.0,40.0,29.90,East,90,3.0,14.0,89,0.00,,,-99.99,Weather View 32 v60,2013-10-16 07:30:00,
2013-10-16 02:35:00,43.0,40.0,29.90,NNE,22,6.0,14.0,89,0.00,,,-99.99,Weather View 32 v60,2013-10-16 07:35:00,
2013-10-16 02:40:00,43.0,40.0,29.90,ENE,68,5.0,14.0,89,0.00,,,-99.99,Weather View 32 v60,2013-10-16 07:40:00,
2013-10-16 02:45:00,43.0,40.0,29.90,North,0,4.0,14.0,89,0.00,,,-99.99,Weather View 32 v60,2013-10-16 07:45:00,
2013-10-16 02:50:00,43.0,40.0,29.90,North,0,6.0,11.0,89,0.00,,,-99.99,Weather View 32 v60,2013-10-16 07:50:00,
2013-10-16 02:55:00,43.0,40.0,29.90,NNE,22,4.0,11.0,89,0.00,,,-99.99,Weather View 32 v60,2013-10-16 07:55:00,
2013-10-16 03:00:00,43.0,40.0,29.90,North,0,3.0,11.0,89,0.00,,,-99.99,Weather View 32 v60,2013-10-16 08:00:00,
2013-10-16 03:05:00,43.0,40.0,29.90,NNE,22,3.0,11.0,89,0.00,,,-99.99,Weather View 32 v60,2013-10-16 08:05:00,
2013-10-16 03:10:00,43.0,40.0,29.91,NE,45,3.0,11.0,89,0.00,,,-99.99,Weather View 32 v60,2013-10-16 08:10:00,
2013-10-16 03:15:00,43.0,40.0,29.91,East,90,3.0,11.0,89,0.00,,,-99.99,Weather View 32 v60,2013-10-16 08:15:00,
2013-10-16 03:20:00,43.0,40.0,29.91,NE,45,2.0,11.0,89,0.00,,,-99.99,Weather View 32 v60,2013-10-16 08:20:00,
2013-10-16 03:25:00,43.0,40.0,29.91,NNE,22,6.0,13.0,89,0.00,,,-99.99,Weather View 32 v60,2013-10-16 08:25:00,
2013-10-16 03:30:00,43.0,40.0,29.91,North,0,4.0,13.0,89,0.00,,,-99.99,Weather View 32 v60,2013-10-16 08:30:00,
2013-10-16 03:35:00,43.0,40.0,29.91,North,0,6.0,13.0,89,0.00,,,-99.99,Weather View 32 v60,2013-10-16 08:35:00,
2013-10-16 03:40:00,43.0,40.0,29.91,NNE,22,3.0,13.0,89,0.00,,,-99.99,Weather View 32 v60,2013-10-16 08:40:00,
2013-10-16 03:45:00,43.0,40.0,29.91,NNE,22,5.0,13.0,89,0.00,,,-99.99,Weather View 32 v60,2013-10-16 08:45:00,
2013-10-16 03:50:00,43.0,40.0,29.91,NNE,22,4.0,13.0,89,0.00,,,-99.99,Weather View 32 v60,2013-10-16 08:50:00,
2013-10-16 03:55:00,43.0,40.0,29.91,NE,45,3.0,13.0,89,0.00,,,-99.99,Weather View 32 v60,2013-10-16 08:55:00,
2013-10-16 04:00:00,43.0,40.0,29.91,NE,45,5.0,13.0,89,0.00,,,-99.99,Weather View 32 v60,2013-10-16 09:00:00,
2013-10-16 04:05:00,43.0,40.0,29.92,NE,45,3.0,13.0,89,0.00,,,-99.99,Weather View 32 v60,2013-10-16 09:05:00,
2013-10-16 04:10:00,43.0,40.0,29.92,NNE,22,6.0,13.0,89,0.00,,,-99.99,Weather View 32 v60,2013-10-16 09:10:00,
2013-10-16 04:15:00,43.0,40.0,29.92,NNE,22,8.0,13.0,89,0.00,,,-99.99,Weather View 32 v60,2013-10-16 09:15:00,
2013-10-16 04:20:00,43.0,40.0,29.92,NNE,22,5.0,13.0,89,0.00,,,-99.99,Weather View 32 v60,2013-10-16 09:20:00,
2013-10-16 04:25:00,43.0,40.0,29.92,NNE,22,8.0,13.0,89,0.00,,,-99.99,Weather View 32 v60,2013-10-16 09:25:00,
2013-10-16 04:30:00,43.0,40.0,29.92,North,0,11.0,13.0,89,0.00,,,-99.99,Weather View 32 v60,2013-10-16 09:30:00,
2013-10-16 04:35:00,43.0,40.0,29.93,East,90,8.0,13.0,89,0.00,,,-99.99,Weather View 32 v60,2013-10-16 09:35:00,
2013-10-16 04:40:00,43.0,40.0,29.93,NE,45,5.0,13.0,89,0.00,,,-99.99,Weather View 32 v60,2013-10-16 09:40:00,
2013-10-16 04:45:00,43.0,40.0,29.93,North,0,6.0,13.0,89,0.00,,,-99.99,Weather View 32 v60,2013-10-16 09:45:00,
2013-10-16 04:52:00,43.0,40.0,29.93,NNE,22,5.0,13.0,89,0.00,,,-99.99,Weather View 32 v60,2013-10-16 09:52:00,
2013-10-16 05:00:00,43.0,40.0,29.93,NE,45,5.0,13.0,89,0.00,,,-99.99,Weather View 32 v60,2013-10-16 10:00:00,
2013-10-16 05:10:00,43.0,40.0,29.93,North,0,10.0,13.0,89,0.00,,,-99.99,Weather View 32 v60,2013-10-16 10:10:00,
2013-10-16 05:15:00,43.0,40.0,29.93,NNE,22,3.0,13.0,89,0.00,,,-99.99,Weather View 32 v60,2013-10-16 10:15:00,
2013-10-16 05:20:00,43.0,40.0,29.93,North,0,3.0,13.0,89,0.00,,,-99.99,Weather View 32 v60,2013-10-16 10:20:00,
2013-10-16 05:30:00,43.0,40.0,29.93,North,0,3.0,13.0,89,0.00,,,-99.99,Weather View 32 v60,2013-10-16 10:30:00,
2013-10-16 05:35:00,43.0,40.0,29.93,NE,45,3.0,13.0,89,0.00,,,-99.99,Weather View 32 v60,2013-10-16 10:35:00,
2013-10-16 05:40:00,43.0,40.0,29.93,ENE,68,2.0,13.0,89,0.00,,,-99.99,Weather View 32 v60,2013-10-16 10:40:00,
2013-10-16 05:45:00,43.0,40.0,29.93,NE,45,6.0,13.0,89,0.00,,,-99.99,Weather View 32 v60,2013-10-16 10:45:00,
2013-10-16 05:50:00,43.0,40.0,29.93,NNW,338,3.0,13.0,89,0.00,,,-99.99,Weather View 32 v60,2013-10-16 10:50:00,
2013-10-16 05:55:00,43.0,40.0,29.93,NE,45,3.0,13.0,89,0.00,,,-99.99,Weather View 32 v60,2013-10-16 10:55:00,
2013-10-16 06:00:00,43.0,40.0,29.93,North,0,3.0,13.0,89,0.00,,,-99.99,Weather View 32 v60,2013-10-16 11:00:00,
2013-10-16 06:05:00,43.0,40.0,29.93,NNE,22,5.0,13.0,89,0.00,,,-99.99,Weather View 32 v60,2013-10-16 11:05:00,
2013-10-16 06:10:00,43.0,40.0,29.93,NE,45,4.0,13.0,89,0.00,,,-99.99,Weather View 32 v60,2013-10-16 11:10:00,
2013-10-16 06:15:00,43.0,40.0,29.93,North,0,2.0,13.0,89,0.00,,,-99.99,Weather View 32 v60,2013-10-16 11:15:00,
2013-10-16 06:20:00,42.0,39.0,29.94,NNW,338,3.0,12.0,89,0.00,,,-99.99,Weather View 32 v60,2013-10-16 11:20:00,
2013-10-16 06:25:00,42.0,39.0,29.94,North,0,4.0,12.0,89,0.00,,,-99.99,Weather View 32 v60,2013-10-16 11:25:00,
2013-10-16 06:30:00,42.0,39.0,29.94,North,0,3.0,12.0,89,0.00,,,-99.99,Weather View 32 v60,2013-10-16 11:30:00,
2013-10-16 06:35:00,42.0,39.0,29.94,NE,45,4.0,12.0,89,0.00,,,-99.99,Weather View 32 v60,2013-10-16 11:35:00,
2013-10-16 06:40:00,42.0,39.0,29.94,NE,45,2.0,10.0,89,0.00,,,-99.99,Weather View 32 v60,2013-10-16 11:40:00,
2013-10-16 06:45:00,42.0,39.0,29.94,North,0,3.0,10.0,89,0.00,,,-99.99,Weather View 32 v60,2013-10-16 11:45:00,
2013-10-16 06:53:00,42.0,39.0,29.94,NNE,22,4.0,10.0,89,0.00,,,-99.99,Weather View 32 v60,2013-10-16 11:53:00,
2013-10-16 07:00:00,42.0,39.0,29.94,North,0,5.0,10.0,89,0.00,,,-99.99,Weather View 32 v60,2013-10-16 12:00:00,
2013-10-16 07:05:00,42.0,39.0,29.95,North,0,3.0,10.0,89,0.00,,,-99.99,Weather View 32 v60,2013-10-16 12:05:00,
2013-10-16 07:10:00,42.0,39.0,29.95,NNE,22,4.0,10.0,89,0.00,,,-99.99,Weather View 32 v60,2013-10-16 12:10:00,
2013-10-16 07:15:00,42.0,39.0,29.95,NE,45,3.0,8.0,89,0.00,,,-99.99,Weather View 32 v60,2013-10-16 12:15:00,
2013-10-16 07:20:00,42.0,39.0,29.95,NNE,22,2.0,8.0,89,0.00,,,-99.99,Weather View 32 v60,2013-10-16 12:20:00,
2013-10-16 07:25:00,42.0,38.7,29.95,North,0,3.0,8.0,88,0.00,,,-99.99,Weather View 32 v60,2013-10-16 12:25:00,
2013-10-16 07:30:00,42.0,38.7,29.95,NNE,22,3.0,11.0,88,0.00,,,-99.99,Weather View 32 v60,2013-10-16 12:30:00,
2013-10-16 07:35:00,42.0,38.7,29.95,NNE,22,4.0,11.0,88,0.00,,,-99.99,Weather View 32 v60,2013-10-16 12:35:00,
2013-10-16 07:40:00,42.0,38.7,29.95,NE,45,3.0,11.0,88,0.00,,,-99.99,Weather View 32 v60,2013-10-16 12:40:00,
2013-10-16 07:45:00,42.0,38.7,29.95,NE,45,5.0,11.0,88,0.00,,,-99.99,Weather View 32 v60,2013-10-16 12:45:00,
2013-10-16 07:50:00,42.0,38.7,29.95,North,0,3.0,11.0,88,0.00,,,-99.99,Weather View 32 v60,2013-10-16 12:50:00,
2013-10-16 07:55:00,42.0,38.7,29.95,NE,45,1.0,11.0,88,0.00,,,-99.99,Weather View 32 v60,2013-10-16 12:55:00,
2013-10-16 08:00:00,42.0,38.7,29.96,NE,45,2.0,11.0,88,0.00,,,-99.99,Weather View 32 v60,2013-10-16 13:00:00,
2013-10-16 08:05:00,42.0,38.7,29.96,NNE,22,2.0,11.0,88,0.00,,,-99.99,Weather View 32 v60,2013-10-16 13:05:00,
2013-10-16 08:10:00,42.0,38.7,29.96,NNE,22,2.0,11.0,88,0.00,,,-99.99,Weather View 32 v60,2013-10-16 13:10:00,
2013-10-16 08:15:00,42.0,38.7,29.96,NE,45,3.0,11.0,88,0.00,,,-99.99,Weather View 32 v60,2013-10-16 13:15:00,
2013-10-16 08:20:00,42.0,38.7,29.96,NNE,22,3.0,11.0,88,0.00,,,-99.99,Weather View 32 v60,2013-10-16 13:20:00,
2013-10-16 08:25:00,42.0,38.7,29.96,North,0,4.0,11.0,88,0.00,,,-99.99,Weather View 32 v60,2013-10-16 13:25:00,
2013-10-16 08:30:00,42.0,38.7,29.96,NW,315,1.0,10.0,88,0.00,,,-99.99,Weather View 32 v60,2013-10-16 13:30:00,
2013-10-16 08:35:00,42.0,38.7,29.96,NNE,22,4.0,10.0,88,0.00,,,-99.99,Weather View 32 v60,2013-10-16 13:35:00,
2013-10-16 08:40:00,42.0,38.7,29.97,North,0,5.0,10.0,88,0.00,,,-99.99,Weather View 32 v60,2013-10-16 13:40:00,
2013-10-16 08:45:00,42.0,38.7,29.97,NW,315,4.0,10.0,88,0.00,,,-99.99,Weather View 32 v60,2013-10-16 13:45:00,
2013-10-16 08:50:00,42.0,38.7,29.97,South,180,2.0,10.0,88,0.00,,,-99.99,Weather View 32 v60,2013-10-16 13:50:00,
2013-10-16 08:55:00,42.0,38.7,29.97,NNE,22,3.0,11.0,88,0.00,,,-99.99,Weather View 32 v60,2013-10-16 13:55:00,
2013-10-16 09:00:00,42.0,38.4,29.97,East,90,2.0,11.0,87,0.00,,,-99.99,Weather View 32 v60,2013-10-16 14:00:00,
2013-10-16 09:05:00,42.0,38.4,29.97,NNE,22,3.0,11.0,87,0.00,,,-99.99,Weather View 32 v60,2013-10-16 14:05:00,
2013-10-16 09:10:00,42.0,38.4,29.97,NNE,22,3.0,11.0,87,0.00,,,-99.99,Weather View 32 v60,2013-10-16 14:10:00,
2013-10-16 09:15:00,42.0,38.4,29.97,NE,45,2.0,11.0,87,0.00,,,-99.99,Weather View 32 v60,2013-10-16 14:15:00,
2013-10-16 09:20:00,42.0,38.4,29.97,NE,45,2.0,11.0,87,0.00,,,-99.99,Weather View 32 v60,2013-10-16 14:20:00,
2013-10-16 09:25:00,42.0,38.4,29.97,NNE,22,2.0,11.0,87,0.00,,,-99.99,Weather View 32 v60,2013-10-16 14:25:00,
2013-10-16 09:30:00,42.0,38.4,29.97,SW,225,1.0,11.0,87,0.00,,,-99.99,Weather View 32 v60,2013-10-16 14:30:00,
2013-10-16 09:35:00,42.0,38.4,29.97,NNE,22,4.0,11.0,87,0.00,,,-99.99,Weather View 32 v60,2013-10-16 14:35:00,
2013-10-16 09:40:00,42.0,38.4,29.97,North,0,3.0,11.0,87,0.00,,,-99.99,Weather View 32 v60,2013-10-16 14:40:00,
2013-10-16 09:45:00,42.0,38.4,29.97,North,0,3.0,11.0,87,0.00,,,-99.99,Weather View 32 v60,2013-10-16 14:45:00,
2013-10-16 09:54:00,42.0,38.4,29.97,North,0,3.0,11.0,87,0.00,,,-99.99,Weather View 32 v60,2013-10-16 14:54:00,
2013-10-16 10:00:00,42.0,38.4,29.97,ENE,68,1.0,6.0,87,0.00,,,-99.99,Weather View 32 v60,2013-10-16 15:00:00,
2013-10-16 10:05:00,42.0,38.4,29.97,NNE,22,1.0,6.0,87,0.00,,,-99.99,Weather View 32 v60,2013-10-16 15:05:00,
2013-10-16 10:10:00,42.0,38.4,29.97,East,90,3.0,6.0,87,0.00,,,-99.99,Weather View 32 v60,2013-10-16 15:10:00,
2013-10-16 10:20:00,42.0,38.4,29.97,NNW,338,3.0,6.0,87,0.00,,,-99.99,Weather View 32 v60,2013-10-16 15:20:00,
2013-10-16 10:25:00,42.0,38.4,29.97,NNE,22,4.0,6.0,87,0.00,,,-99.99,Weather View 32 v60,2013-10-16 15:25:00,
2013-10-16 10:35:00,43.0,39.1,29.97,NE,45,5.0,10.0,86,0.00,,,-99.99,Weather View 32 v60,2013-10-16 15:35:00,
2013-10-16 10:40:00,42.0,38.1,29.97,NNW,338,5.0,10.0,86,0.00,,,-99.99,Weather View 32 v60,2013-10-16 15:40:00,
2013-10-16 10:45:00,42.0,38.1,29.97,North,0,3.0,10.0,86,0.00,,,-99.99,Weather View 32 v60,2013-10-16 15:45:00,
2013-10-16 10:50:00,42.0,38.1,29.97,NNW,338,5.0,10.0,86,0.00,,,-99.99,Weather View 32 v60,2013-10-16 15:50:00,
2013-10-16 10:55:00,42.0,38.1,29.97,NNW,338,5.0,10.0,86,0.00,,,-99.99,Weather View 32 v60,2013-10-16 15:55:00,
2013-10-16 11:05:00,43.0,39.1,29.96,WNW,292,1.0,10.0,86,0.00,,,-99.99,Weather View 32 v60,2013-10-16 16:05:00,
2013-10-16 11:10:00,43.0,39.1,29.96,NNW,338,2.0,10.0,86,0.00,,,-99.99,Weather View 32 v60,2013-10-16 16:10:00,
2013-10-16 11:15:00,43.0,39.1,29.96,NNE,22,3.0,10.0,86,0.00,,,-99.99,Weather View 32 v60,2013-10-16 16:15:00,
2013-10-16 11:20:00,43.0,39.1,29.96,NNE,22,2.0,10.0,86,0.00,,,-99.99,Weather View 32 v60,2013-10-16 16:20:00,
2013-10-16 11:25:00,43.0,39.1,29.96,NNE,22,5.0,10.0,86,0.00,,,-99.99,Weather View 32 v60,2013-10-16 16:25:00,
2013-10-16 11:30:00,43.0,39.1,29.96,North,0,3.0,10.0,86,0.00,,,-99.99,Weather View 32 v60,2013-10-16 16:30:00,
2013-10-16 11:35:00,43.0,38.8,29.96,NNW,338,6.0,10.0,85,0.00,,,-99.99,Weather View 32 v60,2013-10-16 16:35:00,
2013-10-16 11:40:00,43.0,38.8,29.96,NNE,22,4.0,10.0,85,0.00,,,-99.99,Weather View 32 v60,2013-10-16 16:40:00,
2013-10-16 11:50:00,43.0,38.8,29.96,NNW,338,4.0,10.0,85,0.00,,,-99.99,Weather View 32 v60,2013-10-16 16:50:00,
2013-10-16 11:55:00,43.0,38.8,29.96,North,0,2.0,10.0,85,0.00,,,-99.99,Weather View 32 v60,2013-10-16 16:55:00,
2013-10-16 12:00:00,43.0,38.8,29.96,NNW,338,4.0,10.0,85,0.00,,,-99.99,Weather View 32 v60,2013-10-16 17:00:00,
2013-10-16 12:05:00,43.0,38.8,29.96,NNW,338,4.0,10.0,85,0.00,,,-99.99,Weather View 32 v60,2013-10-16 17:05:00,
2013-10-16 12:10:00,43.0,38.8,29.96,NNW,338,2.0,10.0,85,0.00,,,-99.99,Weather View 32 v60,2013-10-16 17:10:00,
2013-10-16 12:15:00,43.0,38.5,29.96,North,0,2.0,10.0,84,0.00,,,-99.99,Weather View 32 v60,2013-10-16 17:15:00,
2013-10-16 12:20:00,43.0,38.5,29.96,SW,225,1.0,10.0,84,0.00,,,-99.99,Weather View 32 v60,2013-10-16 17:20:00,
2013-10-16 12:25:00,43.0,38.5,29.96,NE,45,3.0,10.0,84,0.00,,,-99.99,Weather View 32 v60,2013-10-16 17:25:00,
2013-10-16 12:30:00,44.0,39.5,29.96,WNW,292,1.0,10.0,84,0.00,,,-99.99,Weather View 32 v60,2013-10-16 17:30:00,
2013-10-16 12:35:00,44.0,39.5,29.96,NNW,338,3.0,10.0,84,0.00,,,-99.99,Weather View 32 v60,2013-10-16 17:35:00,
2013-10-16 12:40:00,44.0,39.5,29.96,NNE,22,2.0,8.0,84,0.00,,,-99.99,Weather View 32 v60,2013-10-16 17:40:00,
2013-10-16 12:45:00,44.0,39.5,29.95,North,0,3.0,6.0,84,0.00,,,-99.99,Weather View 32 v60,2013-10-16 17:45:00,
2013-10-16 12:50:00,44.0,39.5,29.95,NW,315,3.0,6.0,84,0.00,,,-99.99,Weather View 32 v60,2013-10-16 17:50:00,
2013-10-16 12:55:00,44.0,39.2,29.95,NNW,338,6.0,6.0,83,0.00,,,-99.99,Weather View 32 v60,2013-10-16 17:55:00,
2013-10-16 13:00:00,44.0,39.2,29.95,NE,45,3.0,6.0,83,0.00,,,-99.99,Weather View 32 v60,2013-10-16 18:00:00,
2013-10-16 13:05:00,44.0,39.2,29.95,WSW,248,0.0,6.0,83,0.00,,,-99.99,Weather View 32 v60,2013-10-16 18:05:00,
2013-10-16 13:10:00,45.0,40.1,29.94,WNW,292,1.0,6.0,83,0.00,,,-99.99,Weather View 32 v60,2013-10-16 18:10:00,
2013-10-16 13:15:00,45.0,39.8,29.94,North,0,3.0,6.0,82,0.00,,,-99.99,Weather View 32 v60,2013-10-16 18:15:00,
2013-10-16 13:20:00,45.0,39.8,29.94,WNW,292,3.0,6.0,82,0.00,,,-99.99,Weather View 32 v60,2013-10-16 18:20:00,
2013-10-16 13:25:00,45.0,39.5,29.94,SW,225,2.0,6.0,81,0.00,,,-99.99,Weather View 32 v60,2013-10-16 18:25:00,
2013-10-16 13:30:00,45.0,39.5,29.94,WSW,248,2.0,6.0,81,0.00,,,-99.99,Weather View 32 v60,2013-10-16 18:30:00,
2013-10-16 13:35:00,46.0,40.5,29.94,North,0,3.0,6.0,81,0.00,,,-99.99,Weather View 32 v60,2013-10-16 18:35:00,
2013-10-16 13:40:00,46.0,40.5,29.94,North,0,4.0,6.0,81,0.00,,,-99.99,Weather View 32 v60,2013-10-16 18:40:00,
2013-10-16 13:50:00,47.0,41.1,29.93,WNW,292,3.0,11.0,80,0.00,,,-99.99,Weather View 32 v60,2013-10-16 18:50:00,
2013-10-16 13:55:00,47.0,40.5,29.93,SW,225,1.0,11.0,78,0.00,,,-99.99,Weather View 32 v60,2013-10-16 18:55:00,
2013-10-16 14:00:00,48.0,41.5,29.93,West,270,1.0,11.0,78,0.00,,,-99.99,Weather View 32 v60,2013-10-16 19:00:00,
2013-10-16 14:10:00,48.0,40.8,29.92,West,270,5.0,11.0,76,0.00,,,-99.99,Weather View 32 v60,2013-10-16 19:10:00,
2013-10-16 14:15:00,48.0,40.8,29.92,NNW,338,3.0,11.0,76,0.00,,,-99.99,Weather View 32 v60,2013-10-16 19:15:00,
2013-10-16 14:20:00,49.0,41.4,29.92,West,270,3.0,11.0,75,0.00,,,-99.99,Weather View 32 v60,2013-10-16 19:20:00,
2013-10-16 14:25:00,49.0,41.1,29.92,West,270,5.0,11.0,74,0.00,,,-99.99,Weather View 32 v60,2013-10-16 19:25:00,
2013-10-16 14:30:00,49.0,40.7,29.92,NW,315,3.0,11.0,73,0.00,,,-99.99,Weather View 32 v60,2013-10-16 19:30:00,
2013-10-16 14:35:00,49.0,40.7,29.91,North,0,5.0,11.0,73,0.00,,,-99.99,Weather View 32 v60,2013-10-16 19:35:00,
2013-10-16 14:40:00,50.0,41.3,29.91,NNW,338,4.0,11.0,72,0.00,,,-99.99,Weather View 32 v60,2013-10-16 19:40:00,
2013-10-16 14:45:00,50.0,41.7,29.91,NW,315,1.0,11.0,73,0.00,,,-99.99,Weather View 32 v60,2013-10-16 19:45:00,
2013-10-16 14:50:00,50.0,41.3,29.91,SW,225,1.0,10.0,72,0.00,,,-99.99,Weather View 32 v60,2013-10-16 19:50:00,
2013-10-16 14:55:00,50.0,41.3,29.91,North,0,4.0,10.0,72,0.00,,,-99.99,Weather View 32 v60,2013-10-16 19:55:00,
2013-10-16 15:00:00,50.0,41.0,29.90,NNW,338,3.0,10.0,71,0.00,,,-99.99,Weather View 32 v60,2013-10-16 20:00:00,
2013-10-16 15:05:00,51.0,41.2,29.90,NW,315,4.0,10.0,69,0.00,,,-99.99,Weather View 32 v60,2013-10-16 20:05:00,
2013-10-16 15:10:00,51.0,41.5,29.90,NNE,22,5.0,8.0,70,0.00,,,-99.99,Weather View 32 v60,2013-10-16 20:10:00,
2013-10-16 15:15:00,51.0,40.8,29.90,WNW,292,5.0,10.0,68,0.00,,,-99.99,Weather View 32 v60,2013-10-16 20:15:00,
2013-10-16 15:20:00,52.0,41.4,29.90,NW,315,6.0,10.0,67,0.00,,,-99.99,Weather View 32 v60,2013-10-16 20:20:00,
2013-10-16 15:25:00,52.0,40.6,29.90,WSW,248,5.0,13.0,65,0.00,,,-99.99,Weather View 32 v60,2013-10-16 20:25:00,
2013-10-16 15:30:00,52.0,39.8,29.90,NNW,338,5.0,14.0,63,0.00,,,-99.99,Weather View 32 v60,2013-10-16 20:30:00,
2013-10-16 15:35:00,52.0,39.8,29.90,NNW,338,5.0,14.0,63,0.00,,,-99.99,Weather View 32 v60,2013-10-16 20:35:00,
2013-10-16 15:40:00,53.0,40.7,29.89,North,0,11.0,14.0,63,0.00,,,-99.99,Weather View 32 v60,2013-10-16 20:40:00,
2013-10-16 15:45:00,53.0,40.3,29.89,WNW,292,4.0,14.0,62,0.00,,,-99.99,Weather View 32 v60,2013-10-16 20:45:00,
2013-10-16 15:50:00,53.0,39.5,29.89,North,0,6.0,14.0,60,0.00,,,-99.99,Weather View 32 v60,2013-10-16 20:50:00,
2013-10-16 15:55:00,53.0,39.0,29.89,NNW,338,6.0,14.0,59,0.00,,,-99.99,Weather View 32 v60,2013-10-16 20:55:00,
2013-10-16 16:00:00,53.0,39.0,29.89,WSW,248,4.0,14.0,59,0.00,,,-99.99,Weather View 32 v60,2013-10-16 21:00:00,
2013-10-16 16:05:00,53.0,38.6,29.89,WNW,292,4.0,14.0,58,0.00,,,-99.99,Weather View 32 v60,2013-10-16 21:05:00,
2013-10-16 16:10:00,53.0,38.6,29.89,NW,315,12.0,14.0,58,0.00,,,-99.99,Weather View 32 v60,2013-10-16 21:10:00,
2013-10-16 16:15:00,53.0,38.1,29.89,North,0,6.0,14.0,57,0.00,,,-99.99,Weather View 32 v60,2013-10-16 21:15:00,
2013-10-16 16:20:00,53.0,38.6,29.89,NNW,338,5.0,14.0,58,0.00,,,-99.99,Weather View 32 v60,2013-10-16 21:20:00,
2013-10-16 16:25:00,53.0,38.6,29.89,West,270,1.0,14.0,58,0.00,,,-99.99,Weather View 32 v60,2013-10-16 21:25:00,
2013-10-16 16:30:00,53.0,38.1,29.89,WNW,292,2.0,13.0,57,0.00,,,-99.99,Weather View 32 v60,2013-10-16 21:30:00,
2013-10-16 16:40:00,53.0,37.7,29.89,NNW,338,5.0,13.0,56,0.00,,,-99.99,Weather View 32 v60,2013-10-16 21:40:00,
2013-10-16 16:45:00,53.0,37.2,29.89,WNW,292,3.0,13.0,55,0.00,,,-99.99,Weather View 32 v60,2013-10-16 21:45:00,
2013-10-16 16:50:00,53.0,37.2,29.89,NNW,338,3.0,13.0,55,0.00,,,-99.99,Weather View 32 v60,2013-10-16 21:50:00,
2013-10-16 16:55:00,53.0,37.7,29.88,NW,315,2.0,12.0,56,0.00,,,-99.99,Weather View 32 v60,2013-10-16 21:55:00,
2013-10-16 17:00:00,53.0,37.7,29.88,WNW,292,3.0,12.0,56,0.00,,,-99.99,Weather View 32 v60,2013-10-16 22:00:00,
2013-10-16 17:05:00,52.0,36.8,29.88,WNW,292,4.0,12.0,56,0.00,,,-99.99,Weather View 32 v60,2013-10-16 22:05:00,
2013-10-16 17:10:00,52.0,36.8,29.88,WNW,292,3.0,12.0,56,0.00,,,-99.99,Weather View 32 v60,2013-10-16 22:10:00,
2013-10-16 17:15:00,52.0,36.8,29.88,WNW,292,3.0,11.0,56,0.00,,,-99.99,Weather View 32 v60,2013-10-16 22:15:00,
2013-10-16 17:20:00,52.0,36.8,29.88,WSW,248,4.0,11.0,56,0.00,,,-99.99,Weather View 32 v60,2013-10-16 22:20:00,
2013-10-16 17:25:00,52.0,37.2,29.89,WNW,292,3.0,11.0,57,0.00,,,-99.99,Weather View 32 v60,2013-10-16 22:25:00,
2013-10-16 17:30:00,52.0,37.2,29.89,West,270,1.0,11.0,57,0.00,,,-99.99,Weather View 32 v60,2013-10-16 22:30:00,
2013-10-16 17:35:00,52.0,37.2,29.89,NW,315,4.0,11.0,57,0.00,,,-99.99,Weather View 32 v60,2013-10-16 22:35:00,
2013-10-16 17:40:00,51.0,36.7,29.89,WNW,292,4.0,10.0,58,0.00,,,-99.99,Weather View 32 v60,2013-10-16 22:40:00,
2013-10-16 17:45:00,51.0,36.3,29.89,NW,315,3.0,10.0,57,0.00,,,-99.99,Weather View 32 v60,2013-10-16 22:45:00,
2013-10-16 17:50:00,51.0,36.3,29.89,NW,315,2.0,10.0,57,0.00,,,-99.99,Weather View 32 v60,2013-10-16 22:50:00,
2013-10-16 17:55:00,51.0,36.3,29.89,WSW,248,1.0,10.0,57,0.00,,,-99.99,Weather View 32 v60,2013-10-16 22:55:00,
2013-10-16 18:00:00,51.0,36.7,29.89,NW,315,1.0,10.0,58,0.00,,,-99.99,Weather View 32 v60,2013-10-16 23:00:00,
2013-10-16 18:05:00,50.0,35.8,29.89,SW,225,1.0,9.0,58,0.00,,,-99.99,Weather View 32 v60,2013-10-16 23:05:00,
2013-10-16 18:15:00,50.0,36.2,29.89,SW,225,0.0,9.0,59,0.00,,,-99.99,Weather View 32 v60,2013-10-16 23:15:00,
2013-10-16 18:20:00,50.0,36.2,29.89,SW,225,0.0,9.0,59,0.00,,,-99.99,Weather View 32 v60,2013-10-16 23:20:00,
2013-10-16 18:25:00,50.0,36.2,29.89,SW,225,1.0,9.0,59,0.00,,,-99.99,Weather View 32 v60,2013-10-16 23:25:00,
2013-10-16 18:30:00,49.0,35.3,29.89,SW,225,0.0,9.0,59,0.00,,,-99.99,Weather View 32 v60,2013-10-16 23:30:00,
2013-10-16 18:40:00,49.0,35.7,29.89,SW,225,1.0,9.0,60,0.00,,,-99.99,Weather View 32 v60,2013-10-16 23:40:00,
2013-10-16 18:45:00,48.0,34.8,29.90,WSW,248,1.0,9.0,60,0.00,,,-99.99,Weather View 32 v60,2013-10-16 23:45:00,
2013-10-16 18:50:00,48.0,35.2,29.90,WSW,248,2.0,9.0,61,0.00,,,-99.99,Weather View 32 v60,2013-10-16 23:50:00,
2013-10-16 18:55:00,47.0,34.2,29.90,SW,225,1.0,5.0,61,0.00,,,-99.99,Weather View 32 v60,2013-10-16 23:55:00,
2013-10-16 19:00:00,47.0,34.6,29.90,SW,225,1.0,4.0,62,0.00,,,-99.99,Weather View 32 v60,2013-10-17 00:00:00,
2013-10-16 19:05:00,46.0,34.1,29.90,WSW,248,1.0,2.0,63,0.00,,,-99.99,Weather View 32 v60,2013-10-17 00:05:00,
2013-10-16 19:10:00,46.0,34.1,29.90,West,270,1.0,2.0,63,0.00,,,-99.99,Weather View 32 v60,2013-10-17 00:10:00,
2013-10-16 19:15:00,45.0,33.5,29.90,WSW,248,1.0,3.0,64,0.00,,,-99.99,Weather View 32 v60,2013-10-17 00:15:00,
2013-10-16 19:20:00,45.0,33.9,29.90,West,270,1.0,3.0,65,0.00,,,-99.99,Weather View 32 v60,2013-10-17 00:20:00,
2013-10-16 19:30:00,44.0,33.4,29.90,SW,225,1.0,3.0,66,0.00,,,-99.99,Weather View 32 v60,2013-10-17 00:30:00,
2013-10-16 19:35:00,43.0,32.8,29.90,SSW,202,0.0,3.0,67,0.00,,,-99.99,Weather View 32 v60,2013-10-17 00:35:00,
2013-10-16 19:40:00,43.0,32.8,29.90,SW,225,1.0,3.0,67,0.00,,,-99.99,Weather View 32 v60,2013-10-17 00:40:00,
2013-10-16 19:45:00,42.0,32.2,29.90,SW,225,0.0,3.0,68,0.00,,,-99.99,Weather View 32 v60,2013-10-17 00:45:00,
2013-10-16 19:50:00,42.0,32.2,29.90,SW,225,1.0,3.0,68,0.00,,,-99.99,Weather View 32 v60,2013-10-17 00:50:00,
2013-10-16 19:55:00,41.0,31.6,29.90,SSW,202,1.0,3.0,69,0.00,,,-99.99,Weather View 32 v60,2013-10-17 00:55:00,
2013-10-16 20:00:00,41.0,32.0,29.90,SW,225,2.0,3.0,70,0.00,,,-99.99,Weather View 32 v60,2013-10-17 01:00:00,
2013-10-16 20:10:00,40.0,31.3,29.90,WSW,248,1.0,3.0,71,0.00,,,-99.99,Weather View 32 v60,2013-10-17 01:10:00,
2013-10-16 20:15:00,40.0,31.3,29.90,SW,225,1.0,3.0,71,0.00,,,-99.99,Weather View 32 v60,2013-10-17 01:15:00,
2013-10-16 20:20:00,39.0,30.4,29.91,SW,225,1.0,3.0,71,0.00,,,-99.99,Weather View 32 v60,2013-10-17 01:20:00,
2013-10-16 20:25:00,39.0,30.7,29.91,WSW,248,1.0,3.0,72,0.00,,,-99.99,Weather View 32 v60,2013-10-17 01:25:00,
2013-10-16 20:30:00,39.0,30.7,29.91,SW,225,3.0,3.0,72,0.00,,,-99.99,Weather View 32 v60,2013-10-17 01:30:00,
2013-10-16 20:35:00,38.0,30.1,29.91,SSW,202,2.0,3.0,73,0.00,,,-99.99,Weather View 32 v60,2013-10-17 01:35:00,
2013-10-16 20:40:00,38.0,30.1,29.91,SW,225,1.0,3.0,73,0.00,,,-99.99,Weather View 32 v60,2013-10-17 01:40:00,
2013-10-16 20:50:00,37.0,29.5,29.91,SW,225,1.0,3.0,74,0.00,,,-99.99,Weather View 32 v60,2013-10-17 01:50:00,
2013-10-16 20:55:00,37.0,29.5,29.91,SW,225,1.0,3.0,74,0.00,,,-99.99,Weather View 32 v60,2013-10-17 01:55:00,
2013-10-16 21:00:00,37.0,29.8,29.91,SW,225,0.0,3.0,75,0.00,,,-99.99,Weather View 32 v60,2013-10-17 02:00:00,
2013-10-16 21:05:00,37.0,29.8,29.91,SW,225,2.0,3.0,75,0.00,,,-99.99,Weather View 32 v60,2013-10-17 02:05:00,
2013-10-16 21:10:00,36.0,28.8,29.91,SW,225,1.0,3.0,75,0.00,,,-99.99,Weather View 32 v60,2013-10-17 02:10:00,
2013-10-16 21:20:00,36.0,29.2,29.91,SW,225,1.0,3.0,76,0.00,,,-99.99,Weather View 32 v60,2013-10-17 02:20:00,
2013-10-16 21:25:00,36.0,29.2,29.91,SW,225,0.0,3.0,76,0.00,,,-99.99,Weather View 32 v60,2013-10-17 02:25:00,
2013-10-16 21:30:00,36.0,29.2,29.91,SW,225,1.0,3.0,76,0.00,,,-99.99,Weather View 32 v60,2013-10-17 02:30:00,
2013-10-16 21:35:00,35.0,28.2,29.91,SW,225,1.0,3.0,76,0.00,,,-99.99,Weather View 32 v60,2013-10-17 02:35:00,
2013-10-16 21:40:00,35.0,28.5,29.91,SW,225,0.0,3.0,77,0.00,,,-99.99,Weather View 32 v60,2013-10-17 02:40:00,
2013-10-16 21:45:00,35.0,28.5,29.91,SW,225,1.0,3.0,77,0.00,,,-99.99,Weather View 32 v60,2013-10-17 02:45:00,
2013-10-16 21:50:00,35.0,28.5,29.91,SW,225,1.0,3.0,77,0.00,,,-99.99,Weather View 32 v60,2013-10-17 02:50:00,
2013-10-16 21:55:00,35.0,28.5,29.91,SSW,202,1.0,3.0,77,0.00,,,-99.99,Weather View 32 v60,2013-10-17 02:55:00,
2013-10-16 22:00:00,35.0,28.5,29.91,SW,225,1.0,3.0,77,0.00,,,-99.99,Weather View 32 v60,2013-10-17 03:00:00,
2013-10-16 22:05:00,34.0,27.5,29.91,SSW,202,1.0,3.0,77,0.00,,,-99.99,Weather View 32 v60,2013-10-17 03:05:00,
2013-10-16 22:10:00,34.0,27.9,29.91,SW,225,3.0,3.0,78,0.00,,,-99.99,Weather View 32 v60,2013-10-17 03:10:00,
2013-10-16 22:15:00,34.0,27.9,29.91,WSW,248,3.0,5.0,78,0.00,,,-99.99,Weather View 32 v60,2013-10-17 03:15:00,
2013-10-16 22:20:00,35.0,28.8,29.91,South,180,1.0,6.0,78,0.00,,,-99.99,Weather View 32 v60,2013-10-17 03:20:00,
2013-10-16 22:25:00,35.0,28.8,29.91,SW,225,2.0,6.0,78,0.00,,,-99.99,Weather View 32 v60,2013-10-17 03:25:00,
2013-10-16 22:30:00,35.0,29.1,29.91,WSW,248,2.0,6.0,79,0.00,,,-99.99,Weather View 32 v60,2013-10-17 03:30:00,
2013-10-16 22:35:00,35.0,29.1,29.91,WSW,248,1.0,6.0,79,0.00,,,-99.99,Weather View 32 v60,2013-10-17 03:35:00,
2013-10-16 22:40:00,35.0,29.1,29.91,SW,225,0.0,6.0,79,0.00,,,-99.99,Weather View 32 v60,2013-10-17 03:40:00,
2013-10-16 22:45:00,35.0,29.1,29.91,SW,225,1.0,6.0,79,0.00,,,-99.99,Weather View 32 v60,2013-10-17 03:45:00,
2013-10-16 22:50:00,35.0,29.1,29.91,WSW,248,1.0,6.0,79,0.00,,,-99.99,Weather View 32 v60,2013-10-17 03:50:00,
2013-10-16 22:55:00,35.0,29.1,29.91,WSW,248,1.0,6.0,79,0.00,,,-99.99,Weather View 32 v60,2013-10-17 03:55:00,
2013-10-16 23:00:00,35.0,29.1,29.91,SW,225,2.0,6.0,79,0.00,,,-99.99,Weather View 32 v60,2013-10-17 04:00:00,
2013-10-16 23:02:00,35.0,29.1,29.91,SW,225,2.0,6.0,79,0.00,,,-99.99,Weather View 32 v60,2013-10-17 04:02:00,
2013-10-16 23:10:00,35.0,29.5,29.91,South,180,1.0,6.0,80,0.00,,,-99.99,Weather View 32 v60,2013-10-17 04:10:00,
2013-10-16 23:15:00,35.0,29.5,29.91,WSW,248,1.0,6.0,80,0.00,,,-99.99,Weather View 32 v60,2013-10-17 04:15:00,
2013-10-16 23:20:00,35.0,29.5,29.91,SW,225,4.0,5.0,80,0.00,,,-99.99,Weather View 32 v60,2013-10-17 04:20:00,
2013-10-16 23:25:00,35.0,29.5,29.91,West,270,1.0,5.0,80,0.00,,,-99.99,Weather View 32 v60,2013-10-17 04:25:00,
2013-10-16 23:30:00,35.0,29.5,29.91,SSW,202,1.0,5.0,80,0.00,,,-99.99,Weather View 32 v60,2013-10-17 04:30:00,
2013-10-16 23:35:00,35.0,29.5,29.91,WSW,248,1.0,5.0,80,0.00,,,-99.99,Weather View 32 v60,2013-10-17 04:35:00,
2013-10-16 23:40:00,35.0,29.5,29.91,WSW,248,1.0,5.0,80,0.00,,,-99.99,Weather View 32 v60,2013-10-17 04:40:00,
2013-10-16 23:45:00,35.0,29.8,29.91,SW,225,2.0,5.0,81,0.00,,,-99.99,Weather View 32 v60,2013-10-17 04:45:00,
2013-10-16 23:50:00,35.0,29.8,29.91,WSW,248,1.0,5.0,81,0.00,,,-99.99,Weather View 32 v60,2013-10-17 04:50:00,
2013-10-16 23:55:00,35.0,29.8,29.90,SW,225,1.0,5.0,81,0.00,,,-99.99,Weather View 32 v60,2013-10-17 04:55:00,